Location: Aranbee
(34.0885°N, 118.2342°W)
Time: 14:58:18
(UTC+00:00)

Tiros 1 - All Passes

Search period start: 26 November 2020 00:00
Search period end: 06 December 2020 00:00
Orbit: 630 x 664 km, 48.4° (Epoch: 25 November)

Date Brightness Start Highest point End Pass type
(mag) Time Alt. Az. Time Alt. Az. Time Alt. Az.
26 Nov - 00:59:09 10° W 01:03:20 29° NNW 01:07:30 10° NE daylight
26 Nov - 02:44:06 10° NW 02:46:46 15° N 02:49:24 10° NNE visible
26 Nov - 04:27:11 10° NNW 04:30:29 18° NNE 04:33:44 10° ENE visible
26 Nov - 06:08:49 10° NW 06:13:29 56° NE 06:18:03 10° ESE night (unlit)
26 Nov - 07:51:40 10° WNW 07:55:22 23° SW 07:59:03 10° S night (unlit)
26 Nov - 22:01:15 10° S 22:04:58 23° SE 22:08:42 10° E daylight
26 Nov - 23:42:08 10° WSW 23:46:53 60° NW 23:51:37 10° NE daylight
27 Nov - 01:26:25 10° WNW 01:29:50 19° NNW 01:33:15 10° NNE visible
27 Nov - 03:10:56 10° NNW 03:13:32 14° N 03:16:08 10° NE visible
27 Nov - 04:52:55 10° NW 04:57:00 28° NNE 05:01:02 10° E night (unlit)
27 Nov - 06:34:49 10° WNW 06:39:29 65° SW 06:44:05 10° SE night (unlit)
27 Nov - 22:26:02 10° SW 22:30:43 55° SE 22:35:26 10° ENE daylight
28 Nov - 00:08:51 10° W 00:13:08 31° NNW 00:17:23 10° NE daylight
28 Nov - 01:53:49 10° NW 01:56:32 15° N 01:59:15 10° NNE visible
28 Nov - 03:37:02 10° NNW 03:40:15 18° NNE 03:43:27 10° ENE visible
28 Nov - 05:18:40 10° NW 05:23:18 51° NNE 05:27:52 10° ESE night (unlit)
28 Nov - 07:01:23 10° WNW 07:05:16 26° SW 07:09:06 10° S night (unlit)
28 Nov - 21:11:19 10° S 21:14:51 21° SE 21:18:23 10° E daylight
28 Nov - 22:51:56 10° WSW 22:56:42 65° NW 23:01:29 10° NE daylight
29 Nov - 00:36:06 10° WNW 00:39:37 20° NNW 00:43:07 10° NNE daylight
29 Nov - 02:20:42 10° NNW 02:23:18 14° N 02:25:53 10° NE visible
29 Nov - 04:02:47 10° NNW 04:06:48 26° NNE 04:10:47 10° E visible
29 Nov - 05:44:38 10° NW 05:49:21 71° SW 05:54:00 10° SE night (unlit)
29 Nov - 21:35:57 10° SSW 21:40:35 50° SE 21:45:14 10° ENE daylight
29 Nov - 23:18:35 10° W 23:22:56 33° NNW 23:27:16 10° NE daylight
30 Nov - 01:03:30 10° NW 01:06:17 15° N 01:09:04 10° NNE visible
30 Nov - 02:46:52 10° NNW 02:50:01 17° NNE 02:53:10 10° NE visible
30 Nov - 04:28:32 10° NW 04:33:08 48° NNE 04:37:40 10° ESE visible
30 Nov - 06:11:07 10° WNW 06:15:09 28° SW 06:19:09 10° SSE night (unlit)
30 Nov - 20:21:25 10° S 20:24:43 19° SE 20:28:03 10° E daylight
30 Nov - 22:01:44 10° WSW 22:06:32 71° NW 22:11:20 10° NE daylight
30 Nov - 23:45:47 10° WNW 23:49:23 21° NNW 23:53:00 10° NNE daylight
01 Dec - 01:30:28 10° NNW 01:33:04 14° N 01:35:39 10° NE visible
01 Dec - 03:12:39 10° NNW 03:16:36 25° NNE 03:20:31 10° E visible
01 Dec - 04:54:28 10° NW 04:59:12 78° SW 05:03:53 10° SE night (unlit)
01 Dec - 06:39:36 10° WSW 06:40:45 11° SW 06:41:54 10° SW night (unlit)
01 Dec - 20:45:52 10° SSW 20:50:26 45° SE 20:55:02 10° ENE daylight
01 Dec - 22:28:19 10° W 22:32:43 35° NNW 22:37:08 10° NE daylight
02 Dec - 00:13:11 10° NW 00:16:03 15° N 00:18:54 10° NNE daylight
02 Dec - 01:56:42 10° NNW 01:59:48 17° NNE 02:02:52 10° NE visible
02 Dec - 03:38:23 10° NW 03:42:58 44° NNE 03:47:28 10° ESE visible
02 Dec - 05:20:51 10° WNW 05:25:02 31° SW 05:29:10 10° SSE night (unlit)
02 Dec - 19:31:34 10° SSE 19:34:36 17° SE 19:37:39 10° E daylight
02 Dec - 21:11:34 10° WSW 21:16:21 77° NW 21:21:11 10° NE daylight
02 Dec - 22:55:28 10° WNW 22:59:10 21° NNW 23:02:52 10° NNE daylight
03 Dec - 00:40:14 10° NNW 00:42:49 14° N 00:45:24 10° NE daylight
03 Dec - 02:22:31 10° NNW 02:26:23 24° NNE 02:30:15 10° ENE visible
03 Dec - 04:04:17 10° NW 04:09:03 85° SW 04:13:45 10° SE visible
03 Dec - 05:48:46 10° WSW 05:50:39 12° SW 05:52:31 10° SSW night (unlit)
03 Dec - 19:55:48 10° SSW 20:00:18 41° SE 20:04:49 10° ENE daylight
03 Dec - 21:38:04 10° W 21:42:31 37° NNW 21:47:00 10° NE daylight
03 Dec - 23:22:52 10° NW 23:25:49 16° N 23:28:44 10° NNE daylight
04 Dec - 01:06:31 10° NNW 01:09:34 16° NNE 01:12:35 10° NE visible
04 Dec - 02:48:14 10° NW 02:52:46 41° NNE 02:57:15 10° ESE visible
04 Dec - 04:30:36 10° WNW 04:34:54 35° SW 04:39:10 10° SSE visible
04 Dec - 18:41:47 10° SSE 18:44:29 15° SE 18:47:13 10° E daylight
04 Dec - 20:21:24 10° SW 20:26:11 83° NW 20:31:01 10° NE daylight
04 Dec - 22:05:10 10° WNW 22:08:57 22° NNW 22:12:44 10° NNE daylight
04 Dec - 23:49:58 10° NNW 23:52:34 14° N 23:55:10 10° NNE daylight
05 Dec - 01:32:22 10° NNW 01:36:11 23° NNE 01:39:58 10° ENE visible
05 Dec - 03:14:06 10° NW 03:18:54 88° NE 03:23:37 10° SE visible
05 Dec - 04:58:10 10° W 05:00:33 14° SW 05:02:55 10° SSW night (unlit)
05 Dec - 19:05:45 10° SSW 19:10:09 37° SE 19:14:35 10° ENE daylight
05 Dec - 20:47:49 10° W 20:52:20 40° NNW 20:56:52 10° NE daylight
05 Dec - 22:32:33 10° NW 22:35:34 16° N 22:38:35 10° NNE daylight
